Frederick, OK

1:54 AM CDT on June 27, 2017 (GMT -0500)
Frederick Municipal

Weather History for KFDR - December, 2013

Change the Weather History Date:

Monday, December 30, 2013

  Actual Average (KLTS) Record (KLTS)
Temperature  
Mean Temperature 30 °F -  
Max Temperature 42 °F 49 °F 73 °F (1996)
Min Temperature 18 °F 25 °F 13 °F (2013)
Degree Days  
Heating Degree Days 35    
Moisture  
Dew Point 14 °F    
Average Humidity 56    
Maximum Humidity 74    
Minimum Humidity 35    
Precipitation  
Precipitation 0.00 in - - ()
Sea Level Pressure  
Sea Level Pressure 30.31 in    
Wind  
Wind Speed 3 mph (WNW)    
Max Wind Speed 8 mph    
Max Gust Speed -    
Visibility 10 miles    
Events      
Averages and records for this station are not official NWS values.
T = Trace of Precipitation, MM = Missing Value Source: NWS Daily Summary

Daily Weather History Graph

Daily Weather History Graph

Search for Another Location

Airport or City:

Trip Planner

Search our weather history database for the weather conditions in past years. The results will help you decide how hot, cold, wet, or windy it might be!

Date:

Astronomy

Dec. 30, 2013 Rise Set
Actual Time 7:41 AM CST 5:35 PM CST
Civil Twilight 7:14 AM CST 6:03 PM CST
Nautical Twilight 6:42 AM CST 6:34 PM CST
Astronomical Twilight 6:12 AM CST 7:05 PM CST
Moon 5:35 AM CST (12/30) 4:08 PM CST (12/30)
Length of Visible Light 10h 49m
Length of Day
9h 53m
Waning Crescent, 4% of the Moon is Illuminated
Dec 30
Waning Crescent
Jan 1
New
Jan 7
First Quarter
Jan 15
Full
Jan 23
Last Quarter

Hourly Weather History & Observations

Time (CST) Temp. Windchill Dew Point Humidity Pressure Visibility Wind Dir Wind Speed Gust Speed Precip Events Conditions
12:53 AM 21.9 °F 15.7 °F 12.9 °F 68% 30.30 in 10.0 mi North 4.6 mph - N/A   Clear
1:53 AM 19.9 °F 12.1 °F 12.0 °F 71% 30.29 in 10.0 mi North 5.8 mph - N/A   Clear
2:53 AM 19.9 °F - 10.9 °F 68% 30.28 in 10.0 mi North - - N/A   Clear
3:53 AM 19.9 °F 11.1 °F 10.9 °F 68% 30.28 in 10.0 mi North 6.9 mph - N/A   Clear
4:53 AM 19.0 °F - 10.9 °F 71% 30.27 in 10.0 mi Calm Calm - N/A   Clear
5:53 AM 19.0 °F 13.9 °F 10.0 °F 68% 30.26 in 10.0 mi North 3.5 mph - N/A   Clear
6:53 AM 18.0 °F - 10.9 °F 74% 30.27 in 10.0 mi Calm Calm - N/A   Clear
7:53 AM 19.0 °F - 12.0 °F 74% 30.29 in 10.0 mi Calm Calm - N/A   Clear
8:53 AM 21.9 °F 15.7 °F 10.9 °F 63% 30.30 in 10.0 mi SE 4.6 mph - N/A   Clear
9:53 AM 25.0 °F 20.7 °F 10.9 °F 55% 30.34 in 10.0 mi SE 3.5 mph - N/A   Clear
10:53 AM 28.9 °F - 12.0 °F 49% 30.32 in 10.0 mi Calm Calm - N/A   Clear
11:53 AM 33.1 °F 27.7 °F 12.9 °F 43% 30.30 in 10.0 mi SSW 5.8 mph - N/A   Clear
12:53 PM 37.0 °F 31.0 °F 15.1 °F 41% 30.26 in 10.0 mi SSW 8.1 mph - N/A   Clear
1:53 PM 39.9 °F 36.7 °F 15.1 °F 36% 30.25 in 10.0 mi West 4.6 mph - N/A   Clear
2:53 PM 42.1 °F 40.2 °F 16.0 °F 35% 30.25 in 10.0 mi NW 3.5 mph - N/A   Clear
3:53 PM 42.1 °F 39.2 °F 17.1 °F 37% 30.27 in 10.0 mi West 4.6 mph - N/A   Clear
4:53 PM 42.1 °F 40.2 °F 17.1 °F 37% 30.29 in 10.0 mi WNW 3.5 mph - N/A   Clear
5:53 PM 39.0 °F - 18.0 °F 43% 30.30 in 10.0 mi Calm Calm - N/A   Clear
6:53 PM 35.1 °F - 17.1 °F 48% 30.33 in 10.0 mi Calm Calm - N/A   Clear
7:53 PM 33.1 °F - 17.1 °F 52% 30.36 in 10.0 mi Calm Calm - N/A   Clear
8:53 PM 32.0 °F - 17.1 °F 54% 30.38 in 10.0 mi Calm Calm - N/A   Clear
9:53 PM 32.0 °F 28.7 °F 17.1 °F 54% 30.39 in 10.0 mi West 3.5 mph - N/A   Clear
10:53 PM 28.9 °F 23.9 °F 18.0 °F 64% 30.39 in 10.0 mi WNW 4.6 mph - N/A   Clear
11:53 PM 28.0 °F - 18.0 °F 66% 30.39 in 10.0 mi Calm Calm - N/A   Clear